Terminal Aerodrome Forecast
Issued by NWS Grand Forks, ND

Home | Current Version | Previous Version | Text Only | Print | Product List | Glossary Off
Versions: 1 2 3 4 5 6 7 8 9 10 11 12 13 14 15 16 17 18 19 20 21 22 23

000
FTUS43 KFGF 310500
TAFGFK
TAF
KGFK 310520Z 3106/0106 14009KT P6SM FEW040 BKN120
     FM311100 14012KT P6SM -TSRA OVC040CB
     FM311800 19014KT P6SM BKN050
     FM312200 29013KT P6SM BKN070
     FM010200 28007KT P6SM SCT100=

USA.gov is the U.S. government's official web portal to all federal, state and local government web resources and services.